Список аэропортов
Фактическая погода:

26 апреля, 12:00
Температура: +6°C (+1.5*)
Ветер: южный 8 м/с
Давление: *754 мм
разорв. обл.
кучево-дождевые 180 м
Время (МСК)Темп. СВетерВлажностьДавлениеОблачностьОсадки
09:00+5ЮВ, 6 м/с75%1008 гПаоблачно
10:00+7Ю, 7 м/с72%1008 гПаоблачно
11:00+9Ю, 7 м/с70%1007 гПаоблачно
12:00+10Ю, 7 м/с70%1006 гПаоблачносл. дождь
13:00+10ЮВ, 6 м/с77%1006 гПаоблачнодождь
14:00+10Ю, 7 м/с81%1006 гПаоблачнодождь
15:00+9Ю, 8 м/с81%1005 гПаоблачносл. дождь
16:00+9ЮВ, 7 м/с80%1004 гПаоблачносл. дождь
17:00+9ЮВ, 6 м/с79%1004 гПаоблачносл. дождь
18:00+9Ю, 6 м/с84%1004 гПаоблачнодождь
19:00+9ЮВ, 6 м/с88%1003 гПаоблачнодождь
20:00+8ЮВ, 6 м/с88%1002 гПаоблачнодождь
21:00+8ЮВ, 6 м/с89%1001 гПаоблачносл. дождь
22:00+8ЮВ, 6 м/с90%1001 гПаоблачносл. дождь
23:00+8ЮВ, 5 м/с93%1000 гПаоблачно
27 апреля
00:00+8ЮВ, 4 м/с96%999 гПаоблачно
01:00+8ЮВ, 5 м/с98%999 гПаоблачно
02:00+8Ю, 5 м/с99%998 гПаоблачносл. дождь
03:00+10З, 6 м/с90%998 гПаоблачнодождь
04:00+10З, 9 м/с80%999 гПаоблачносл. дождь
05:00+9З, 9 м/с77%1000 гПаоблачносл. дождь
06:00+9З, 9 м/с73%1001 гПаоблачно
07:00+9З, 10 м/с67%1002 гПаоблачно
08:00+9З, 9 м/с70%1003 гПаоблачно
09:00+10З, 9 м/с68%1004 гПаоблачно
10:00+10З, 9 м/с65%1005 гПаоблачно
11:00+11З, 9 м/с63%1007 гПаоблачно
12:00+11З, 9 м/с62%1008 гПаоблачно
13:00+13З, 7 м/с60%1008 гПаоблачно
14:00+14З, 7 м/с57%1009 гПамалооблачно
15:00+14З, 7 м/с54%1009 гПас прояснениями
16:00+14З, 7 м/с52%1009 гПас прояснениями
17:00+14З, 6 м/с51%1010 гПаоблачно
18:00+14З, 4 м/с51%1011 гПаоблачно
19:00+13З, 3 м/с56%1011 гПаоблачно
20:00+11ЮЗ, 1 м/с67%1011 гПаоблачно
21:00+10Ю, 2 м/с70%1011 гПаоблачно
22:00+9ЮВ, 2 м/с76%1011 гПаоблачно
23:00+9Ю, 3 м/с81%1011 гПаоблачнодождь
28 апреля
00:00+9Ю, 2 м/с84%1011 гПаоблачнодождь
01:00+9В, 2 м/с86%1010 гПаоблачнодождь
02:00+9СВ, 2 м/с85%1010 гПаоблачнодождь
03:00+9В, 2 м/с73%1009 гПаоблачнодождь
04:00+9СВ, 5 м/с67%1007 гПаоблачнодождь
05:00+9СВ, 5 м/с75%1006 гПаоблачнодождь
06:00+8СВ, 7 м/с77%1006 гПаоблачнодождь
07:00+8СВ, 6 м/с77%1005 гПаоблачнодождь
08:00+8СВ, 9 м/с74%1004 гПаоблачнодождь
09:00+8СВ, 9 м/с74%1003 гПаоблачнодождь